weather.gov     
National Weather Service

Regional Weather Roundup
NWS Homepage
This page is being discontinued on March 12, 2014.
The same data is available at this site. Please update your bookmarks.
Thank you, and we apologize for the inconvenience.
Please send an email to SR-SRH.Webmaster@noaa.gov with any concerns.


Current Version
Previous Version:    01  02  03  04  05  06  07  08  09  10  11  12  13  14  15  16  17  18  19  20  21  22  23  24  25  26  27  
[Printable]
961
ASUS41 KBGM 192010
RWRBGM
RWRBGM
BINGHAMTON REGIONAL WEATHER ROUNDUP
NATIONAL WEATHER SERVICE BINGHAMTON NY
300 PM EST FRI DEC 19 2014

Note: "fair" indicates few or no clouds below 12,000 feet with no
significant weather and/or obstructions to visibility.

* = Station(s) that does not report precipitation, such as rain,
snow, etc, also no thunder or fog.

!NYZ009-015>018-022>025-036-037-044>046-055>057-062-192100
...CENTRAL NEW YORK...

CITY           SKY/WX    TMP DP  RH WIND       PRES   REMARKS
BINGHAMTON     CLOUDY    23  19  85 NW10      30.06R WCI  12
CORTLAND       CLOUDY    27  23  86 NW5       30.12R WCI  21
DANSVILLE      CLOUDY    29  19  66 NW8       30.16R WCI  21
ELMIRA         CLOUDY    29  21  72 NW8       30.13R WCI  21
ITHACA         CLOUDY    25  21  84 N9        30.14R WCI  16
HAMILTON       CLOUDY    27  21  80 NW5       30.10R WCI  21
MONTICELLO     CLOUDY    27  19  74 NW9G17    30.04R WCI  17
NORWICH        CLOUDY    25  19  80 NW7       30.11R WCI  17
ONEONTA        CLOUDY    21  19  93 CALM      30.04R
PENN YAN       CLOUDY    28  21  75 W6        30.14R WCI  22
ROME           CLOUDY    26  20  77 W12       30.15R WCI  16
SIDNEY         CLOUDY    28  25  86 NW8       30.10S WCI  20
SYRACUSE       FLURRIES  26  24  92 NW7       30.15R WCI  18
$$

!PAZ038>040-043-044-047-048-072-192100
...NORTHEAST PENNSYLVANIA...

CITY           SKY/WX    TMP DP  RH WIND       PRES   REMARKS
HAZLETON       CLOUDY    32  21  64 NW12G17   30.07R WCI  23
SCRANTON       CLOUDY    30  19  63 NW15G23   30.10R WCI  19
TOWANDA*       CLOUDY    30  18  59 NW5       30.14R WCI  25
$$
&&
KEY
WCI = WIND CHILL INDEX
VSB = VISIBILITY
HX  = HEAT INDEX
$$




U.S. Dept. of Commerce
NOAA National Weather Service
1325 East West Highway
Silver Spring, MD 20910
E-mail: w-nws.webmaster@noaa.gov
Page last modified: May 16, 2007
NATIONAL WEATHER SERVICE: for Safety, for Work, for Fun - FOR LIFE